Flag for Botswana Weather past 2 weeks in Francistown, Botswana

Now
64 °F

Clear.


Feels Like: 64 °F
Forecast: 43 / 80 °F
Wind: 16 mph from Southwest

Location: Francistown Airport

Current Time: Aug 22, 2014 at 4:22:24 AM

Latest Report: Aug 22, 2014 at 3:00 AM


Visibility: 10 mi

Pressure: 29.95 "Hg

Humidity: 30%

Dew point: 32 °F

Location of FrancistownLocation

Historic Weather in Francistown — Graph

°F

Francistown temperature yesterday

Maximum temperature yesterday: 90 °F (at 3:00 PM)
Minimum temperature yesterday: 46 °F (at 2:00 AM)
Average temperature yesterday: 64 °F

Past Weeks' High & Low Weather Summary

 TemperatureHumidityPressure
High90 °F (Aug 21, 3:00 PM)100% (Aug 14, 6:00 AM)30.39 "Hg (Aug 14, 6:00 AM)
Low39 °F (Aug 14, 7:00 AM)10% (Aug 20, 5:00 PM)29.95 "Hg (Aug 21, 3:00 PM)
Average64 °F49%30.19 "Hg
* Reported Aug 7 6:00 AM — Aug 22 3:00 AM, Francistown, Weather by CustomWeather, © 2014

Note: Actual official high and low records may vary slightly from our data, if they occured in-between our weather recording intervals... More about our weather records

Advertising

Francistown weather history for previous 24 hours

 ConditionsComfort  
Time TempWeatherWind HumidityBarometerVisibility
3:00 AM
Aug 22
64 °FClear.16 mph30%29.95 "Hg10 mi
2:00 AM59 °FClear.3 mph34%29.95 "Hg10 mi
12:00 AM63 °FClear.5 mph27%29.95 "Hg10 mi
11:00 PM
Aug 21
57 °FClear.3 mph33%29.98 "Hg10 mi
10:00 PM61 °FClear.3 mph29%29.98 "Hg10 mi
9:00 PM68 °FClear.7 mph24%30.01 "Hg10 mi
8:00 PM64 °FClear.7 mph26%30.01 "Hg10 mi
7:00 PM70 °FClear.6 mph23%29.98 "Hg10 mi
6:00 PM82 °FClear.3 mph15%29.98 "Hg10 mi
5:00 PM88 °FPassing clouds.6 mph13%29.95 "HgN/A
4:00 PM90 °FPassing clouds.7 mph11%29.95 "HgN/A
3:00 PM90 °FSunny.5 mph10%29.95 "Hg10 mi
2:00 PM88 °FPassing clouds.7 mph13%29.98 "HgN/A
10:00 AM81 °FPassing clouds.12 mph24%30.09 "HgN/A
9:00 AM59 °FSunny.9 mph51%30.09 "Hg10 mi
8:00 AM59 °FSunny.2 mph39%30.09 "Hg10 mi
7:00 AM52 °FSunny.3 mph41%30.09 "Hg10 mi
6:00 AM54 °FSunny.3 mph38%30.07 "Hg10 mi
5:00 AM50 °FClear.7 mph40%30.07 "Hg10 mi
4:00 AM46 °FClear.3 mph40%30.07 "Hg10 mi
Weather by CustomWeather, © 2014

See weather overviewHow to use our weather pages